Weather History for Prairie Du Chien, WI

Change the Weather History Date:

Saturday, October 26, 2013

  Actual Average Record
Temperature  
Mean Temperature 42 °F -  
Max Temperature 51 °F 60 °F 79 °F (1955)
Min Temperature 33 °F 37 °F 16 °F (1962)
Degree Days  
Heating Degree Days 23    
Moisture  
Dew Point 28 °F    
Average Humidity 54    
Maximum Humidity 81    
Minimum Humidity 36    
Precipitation  
Precipitation 0.00 in - - ()
Sea Level Pressure  
Sea Level Pressure 29.97 in    
Wind  
Wind Speed 12 mph (WNW)    
Max Wind Speed 20 mph    
Max Gust Speed 29 mph    
Visibility 10 miles    
Events      
Averages and records for this station are not official NWS values.
T = Trace of Precipitation, MM = Missing Value Source: NWS Daily Summary

Daily Weather History Graph

Daily Weather History Graph

Search for Another Location

Airport:

Trip Planner

Search our weather history database for the weather conditions in past years. The results will help you decide how hot, cold, wet, or windy it might be!

Date:

Astronomy

Oct. 26, 2013 Rise Set
Actual Time 7:31 AM CDT 6:04 PM CDT
Civil Twilight 7:02 AM CDT 6:33 PM CDT
Nautical Twilight 6:29 AM CDT 7:06 PM CDT
Astronomical Twilight 5:56 AM CDT 7:39 PM CDT
Moon No Moon Rise 1:49 PM CDT (10/26)
Length of Visible Light 11h 30m
Length of Day
10h 32m
Waning Gibbous, 53% of the Moon is Illuminated
Oct 26
Waning Gibbous
Oct 26
Last Quarter
Nov 3
New
Nov 9
First Quarter
Nov 17
Full

Hourly Weather History & Observations

Time (CDT) Temp. Windchill Dew Point Humidity Pressure Visibility Wind Dir Wind Speed Gust Speed Precip Events Conditions
12:15 AM 47.5 °F - 27.0 °F 45% 29.90 in 10.0 mi SW 17.3 mph 28.8 mph N/A   Clear
12:35 AM 47.5 °F - 27.0 °F 45% 29.90 in 10.0 mi SW 17.3 mph 25.3 mph N/A   Clear
12:55 AM 47.3 °F - 27.1 °F 46% 29.89 in 10.0 mi SW 16.1 mph 24.2 mph N/A   Clear
1:15 AM 47.1 °F - 27.3 °F 46% 29.87 in 10.0 mi SW 19.6 mph 25.3 mph N/A   Clear
1:35 AM 47.3 °F - 27.3 °F 46% 29.87 in 10.0 mi WSW 13.8 mph 26.5 mph N/A   Scattered Clouds
1:55 AM 47.3 °F - 27.5 °F 46% 29.86 in 10.0 mi SW 15.0 mph 24.2 mph N/A   Scattered Clouds
2:15 AM 47.5 °F - 27.9 °F 47% 29.85 in 10.0 mi SW 11.5 mph 26.5 mph N/A   Scattered Clouds
2:35 AM 47.3 °F - 28.4 °F 48% 29.85 in 10.0 mi WSW 12.7 mph 20.7 mph N/A   Scattered Clouds
2:55 AM 46.6 °F - 28.4 °F 49% 29.84 in 10.0 mi WSW 13.8 mph 23.0 mph N/A   Scattered Clouds
3:15 AM 46.0 °F 40.6 °F 28.8 °F 51% 29.84 in 10.0 mi WSW 11.5 mph 16.1 mph N/A   Clear
3:35 AM 45.7 °F 40.2 °F 29.1 °F 52% 29.83 in 10.0 mi WSW 11.5 mph 17.3 mph N/A   Clear
3:55 AM 45.9 °F 41.7 °F 29.3 °F 52% 29.82 in 10.0 mi WSW 8.1 mph 19.6 mph N/A   Clear
4:15 AM 45.7 °F 41.0 °F 29.7 °F 54% 29.82 in 10.0 mi WSW 9.2 mph 16.1 mph N/A   Clear
4:35 AM 45.7 °F 41.0 °F 30.0 °F 54% 29.82 in 10.0 mi West 9.2 mph 17.3 mph N/A   Clear
4:55 AM 45.5 °F 39.2 °F 30.7 °F 56% 29.83 in 10.0 mi WSW 13.8 mph 18.4 mph N/A   Clear
5:15 AM 45.5 °F 39.9 °F 31.3 °F 58% 29.83 in 10.0 mi West 11.5 mph - N/A   Clear
5:35 AM 44.8 °F 39.0 °F 32.0 °F 61% 29.84 in 10.0 mi West 11.5 mph - N/A   Clear
5:55 AM 44.1 °F 38.6 °F 32.2 °F 63% 29.85 in 10.0 mi West 10.4 mph 16.1 mph N/A   Clear
6:15 AM 44.2 °F 39.2 °F 32.9 °F 64% 29.85 in 10.0 mi West 9.2 mph - N/A   Clear
6:35 AM 43.9 °F 38.3 °F 33.6 °F 67% 29.86 in 10.0 mi West 10.4 mph 16.1 mph N/A   Clear
6:55 AM 43.2 °F 37.4 °F 33.4 °F 69% 29.86 in 10.0 mi West 10.4 mph 17.3 mph N/A   Clear
7:15 AM 42.8 °F 37.5 °F 33.6 °F 70% 29.87 in 10.0 mi West 9.2 mph - N/A   Clear
7:35 AM 43.5 °F 37.9 °F 33.4 °F 68% 29.88 in 10.0 mi West 10.4 mph 16.1 mph N/A   Clear
7:55 AM 42.8 °F 35.4 °F 32.7 °F 68% 29.89 in 10.0 mi WNW 15.0 mph 19.6 mph N/A   Clear
8:15 AM 43.0 °F 36.0 °F 31.6 °F 64% 29.90 in 10.0 mi WNW 13.8 mph 18.4 mph N/A   Clear
8:35 AM 43.7 °F 35.7 °F 30.9 °F 61% 29.91 in 10.0 mi WNW 18.4 mph 21.9 mph N/A   Clear
8:55 AM 43.9 °F 36.5 °F 30.2 °F 59% 29.91 in 10.0 mi WNW 16.1 mph 25.3 mph N/A   Clear
9:15 AM 43.2 °F 35.3 °F 29.1 °F 58% 29.93 in 10.0 mi NW 17.3 mph 26.5 mph N/A   Clear
9:35 AM 44.1 °F 37.1 °F 28.9 °F 55% 29.94 in 10.0 mi WNW 15.0 mph 20.7 mph N/A   Clear
9:55 AM 45.1 °F 38.4 °F 29.1 °F 54% 29.95 in 10.0 mi NW 15.0 mph 24.2 mph N/A   Clear
10:15 AM 45.5 °F 39.2 °F 29.5 °F 54% 29.96 in 10.0 mi NW 13.8 mph 24.2 mph N/A   Clear
10:35 AM 46.4 °F 40.7 °F 29.5 °F 52% 29.97 in 10.0 mi NW 12.7 mph 19.6 mph N/A   Clear
10:55 AM 47.3 °F - 29.7 °F 50% 29.97 in 10.0 mi WNW 16.1 mph 24.2 mph N/A   Scattered Clouds
11:15 AM 47.7 °F - 30.0 °F 50% 29.99 in 10.0 mi NNW 16.1 mph 23.0 mph N/A   Scattered Clouds
11:35 AM 47.1 °F - 29.7 °F 51% 30.00 in 10.0 mi NNW 18.4 mph 23.0 mph N/A   Scattered Clouds
11:55 AM 47.5 °F - 29.5 °F 50% 30.01 in 10.0 mi NW 15.0 mph 21.9 mph N/A   Scattered Clouds
12:15 PM 48.2 °F - 29.1 °F 48% 30.01 in 10.0 mi WNW 15.0 mph 18.4 mph N/A   Mostly Cloudy
12:35 PM 49.6 °F - 28.9 °F 45% 30.02 in 10.0 mi NW 15.0 mph 20.7 mph N/A   Mostly Cloudy
12:55 PM 48.7 °F - 28.4 °F 45% 30.02 in 10.0 mi WNW 15.0 mph 23.0 mph N/A   Mostly Cloudy
1:15 PM 49.5 °F - 27.1 °F 42% 30.01 in 10.0 mi WNW 16.1 mph 24.2 mph N/A   Scattered Clouds
1:35 PM 50.2 °F - 26.6 °F 40% 30.01 in 10.0 mi WNW 16.1 mph 23.0 mph N/A   Scattered Clouds
1:55 PM 50.2 °F - 26.2 °F 39% 30.01 in 10.0 mi WNW 16.1 mph 24.2 mph N/A   Scattered Clouds
2:15 PM 50.7 °F - 26.8 °F 40% 30.02 in 10.0 mi NNW 12.7 mph 19.6 mph N/A   Scattered Clouds
2:35 PM 50.7 °F - 25.9 °F 38% 30.03 in 10.0 mi NW 13.8 mph 21.9 mph N/A   Scattered Clouds
2:55 PM 50.9 °F - 25.7 °F 38% 30.03 in 10.0 mi WNW 12.7 mph 24.2 mph N/A   Scattered Clouds
3:15 PM 50.5 °F - 24.6 °F 36% 30.04 in 10.0 mi NW 10.4 mph 24.2 mph N/A   Scattered Clouds
3:35 PM 51.1 °F - 25.0 °F 36% 30.04 in 10.0 mi NW 13.8 mph 20.7 mph N/A   Scattered Clouds
3:55 PM 50.7 °F - 24.4 °F 36% 30.04 in 10.0 mi NW 12.7 mph 23.0 mph N/A   Scattered Clouds
4:15 PM 50.5 °F - 25.2 °F 37% 30.04 in 10.0 mi NW 13.8 mph 18.4 mph N/A   Scattered Clouds
4:35 PM 50.5 °F - 25.2 °F 37% 30.04 in 10.0 mi NW 9.2 mph 19.6 mph N/A   Scattered Clouds
4:55 PM 49.8 °F - 24.6 °F 37% 30.05 in 10.0 mi NW 12.7 mph - N/A   Scattered Clouds
5:15 PM 49.1 °F - 25.2 °F 39% 30.05 in 10.0 mi NW 12.7 mph 19.6 mph N/A   Scattered Clouds
5:35 PM 48.6 °F - 25.0 °F 40% 30.06 in 10.0 mi NW 12.7 mph - N/A   Scattered Clouds
5:55 PM 47.8 °F - 24.8 °F 41% 30.06 in 10.0 mi NW 10.4 mph 16.1 mph N/A   Mostly Cloudy
6:15 PM 46.2 °F 42.2 °F 25.7 °F 45% 30.06 in 10.0 mi NW 8.1 mph - N/A   Scattered Clouds
6:35 PM 45.3 °F 41.6 °F 25.9 °F 47% 30.07 in 10.0 mi NNW 6.9 mph - N/A   Clear
6:55 PM 43.0 °F - 26.2 °F 52% 30.07 in 10.0 mi Calm Calm - N/A   Clear
7:15 PM 42.3 °F 40.5 °F 26.1 °F 53% 30.08 in 10.0 mi NW 3.5 mph - N/A   Clear
7:35 PM 41.5 °F - 27.3 °F 57% 30.09 in 10.0 mi Calm Calm - N/A   Clear
7:55 PM 41.9 °F - 27.0 °F 55% 30.09 in 10.0 mi Calm Calm - N/A   Clear
8:15 PM 38.5 °F - 28.0 °F 66% 30.09 in 10.0 mi Calm Calm - N/A   Clear
8:35 PM 35.6 °F 32.8 °F 27.5 °F 72% 30.09 in 10.0 mi East 3.5 mph - N/A   Clear
8:55 PM 34.9 °F - 27.3 °F 74% 30.09 in 10.0 mi Calm Calm - N/A   Clear
9:15 PM 35.2 °F - 27.5 °F 73% 30.09 in 10.0 mi Calm Calm - N/A   Clear
9:35 PM 34.2 °F - 28.0 °F 78% 30.09 in 10.0 mi Calm Calm - N/A   Clear
9:55 PM 33.8 °F - 27.7 °F 78% 30.09 in 10.0 mi Calm Calm - N/A   Clear
10:15 PM 34.0 °F - 27.5 °F 77% 30.10 in 10.0 mi Calm Calm - N/A   Clear
10:35 PM 34.0 °F - 28.4 °F 80% 30.10 in 10.0 mi Calm Calm - N/A   Clear
10:55 PM 34.0 °F - 28.2 °F 79% 30.09 in 10.0 mi Calm Calm - N/A   Clear
11:15 PM 33.8 °F - 28.0 °F 79% 30.09 in 10.0 mi Calm Calm - N/A   Clear
11:35 PM 34.0 °F - 28.4 °F 80% 30.09 in 10.0 mi Calm Calm - N/A   Clear
11:55 PM 33.8 °F - 28.6 °F 81% 30.08 in 10.0 mi Calm Calm - N/A   Clear